"read_dt","SO2 (ppb)","flags","PMT voltage (V)","lamp voltage (V)","lamp intensity (Hz)","internal temp (C)","react chamber temp (C)","sample flow (l/min)","pres (mmHg)","SO2 bkg (ppb)","SO2 coefficient"
2014-08-14 00:00:00,1822E-3,5C000000,-0724,0829,11900,029.9,045.6,0.474,735.3,01.18,0.508
2014-08-14 00:01:00,1938E-3,5C000000,-0724,0829,11953,029.9,045.6,0.475,735.3,01.18,0.508
2014-08-14 00:02:00,1830E-3,5C000000,-0724,0828,12233,029.9,045.6,0.475,735.3,01.18,0.508
2014-08-14 00:03:00,1692E-3,5C000000,-0724,0827,12255,029.8,045.5,0.475,735.3,01.18,0.508
2014-08-14 00:04:00,1862E-3,5C000000,-0724,0829,11933,029.8,045.5,0.475,735.3,01.18,0.508
2014-08-14 00:05:00,1920E-3,5C000000,-0724,0828,12227,029.8,045.5,0.475,735.3,01.18,0.508
2014-08-14 00:06:00,1843E-3,5C000000,-0724,0828,12223,029.7,045.5,0.475,735.2,01.18,0.508
2014-08-14 00:07:00,1762E-3,5C000000,-0724,0829,12253,029.7,045.6,0.475,735.3,01.18,0.508
2014-08-14 00:08:00,1693E-3,5C000000,-0724,0829,12241,029.7,045.6,0.475,735.3,01.18,0.508
2014-08-14 00:09:00,1837E-3,5C000000,-0724,0828,12236,029.6,045.6,0.475,735.3,01.18,0.508
2014-08-14 00:10:00,1627E-3,5C000000,-0724,0829,12267,029.6,045.5,0.475,735.2,01.18,0.508
2014-08-14 00:11:00,1833E-3,5C000000,-0724,0828,12249,029.5,045.5,0.475,735.2,01.18,0.508
2014-08-14 00:12:00,1894E-3,5C000000,-0724,0829,12058,029.5,045.5,0.476,735.3,01.18,0.508
2014-08-14 00:13:00,1748E-3,5C000000,-0724,0828,12301,029.5,045.5,0.475,735.3,01.18,0.508
2014-08-14 00:14:00,1890E-3,5C000000,-0724,0829,12269,029.5,045.5,0.476,735.3,01.18,0.508
2014-08-14 00:15:00,1946E-3,5C000000,-0724,0828,12178,029.4,045.5,0.475,735.3,01.18,0.508
2014-08-14 00:16:00,1701E-3,5C000000,-0724,0829,12259,029.4,045.5,0.476,735.2,01.18,0.508
2014-08-14 00:17:00,1990E-3,5C000000,-0724,0829,12113,029.4,045.5,0.475,735.3,01.18,0.508
2014-08-14 00:18:00,1820E-3,5C000000,-0724,0828,12307,029.4,045.6,0.476,735.3,01.18,0.508
2014-08-14 00:19:00,1739E-3,5C000000,-0724,0828,12212,029.3,045.5,0.476,735.3,01.18,0.508
2014-08-14 00:20:00,1757E-3,5C000000,-0724,0827,12102,029.3,045.5,0.475,735.3,01.18,0.508
2014-08-14 00:21:00,1713E-3,5C000000,-0724,0829,12146,029.3,045.5,0.476,735.2,01.18,0.508
2014-08-14 00:22:00,1642E-3,5C000000,-0724,0828,12205,029.2,045.5,0.476,735.2,01.18,0.508
2014-08-14 00:23:00,1735E-3,5C000000,-0724,0829,12115,029.2,045.5,0.476,735.3,01.18,0.508
2014-08-14 00:24:00,1934E-3,5C000000,-0724,0829,12372,029.2,045.5,0.476,735.2,01.18,0.508
2014-08-14 00:25:00,1907E-3,5C000000,-0724,0828,12305,029.2,045.5,0.475,735.2,01.18,0.508
2014-08-14 00:26:00,1971E-3,5C000000,-0724,0828,12257,029.2,045.5,0.476,735.2,01.18,0.508
2014-08-14 00:27:00,1884E-3,5C000000,-0724,0829,12255,029.2,045.5,0.476,735.1,01.18,0.508
2014-08-14 00:28:00,1924E-3,5C000000,-0724,0829,12223,029.2,045.5,0.475,735.2,01.18,0.508
2014-08-14 00:29:00,1841E-3,5C000000,-0724,0829,12281,029.2,045.5,0.476,735.2,01.18,0.508
2014-08-14 00:30:00,1819E-3,5C000000,-0724,0829,11995,029.2,045.5,0.476,735.2,01.18,0.508
2014-08-14 00:31:00,1720E-3,5C000000,-0724,0829,12178,029.2,045.5,0.476,735.2,01.18,0.508
2014-08-14 00:32:00,1711E-3,5C000000,-0724,0828,12202,029.2,045.6,0.476,735.1,01.18,0.508
2014-08-14 00:33:00,1713E-3,5C000000,-0724,0829,12130,029.2,045.5,0.476,735.1,01.18,0.508
2014-08-14 00:34:00,1898E-3,5C000000,-0724,0828,12031,029.3,045.5,0.476,735.1,01.18,0.508
2014-08-14 00:35:00,1720E-3,5C000000,-0724,0828,12159,029.3,045.5,0.475,735.1,01.18,0.508
2014-08-14 00:36:00,1842E-3,5C000000,-0724,0829,12301,029.3,045.6,0.476,735.1,01.18,0.508
2014-08-14 00:37:00,1847E-3,5C000000,-0724,0828,12323,029.3,045.5,0.476,735.0,01.18,0.508
2014-08-14 00:38:00,1813E-3,5C000000,-0724,0829,12194,029.3,045.5,0.475,735.1,01.18,0.508
2014-08-14 00:39:00,1824E-3,5C000000,-0724,0829,12220,029.3,045.5,0.475,735.1,01.18,0.508
2014-08-14 00:40:00,1860E-3,5C000000,-0724,0830,12270,029.3,045.5,0.476,735.1,01.18,0.508
2014-08-14 00:41:00,1723E-3,5C000000,-0724,0829,12212,029.4,045.5,0.475,735.1,01.18,0.508
2014-08-14 00:42:00,1927E-3,5C000000,-0724,0829,12213,029.4,045.5,0.475,735.0,01.18,0.508
2014-08-14 00:43:00,1783E-3,5C000000,-0724,0827,12085,029.4,045.5,0.476,735.1,01.18,0.508
2014-08-14 00:44:00,1852E-3,5C000000,-0724,0829,12215,029.4,045.5,0.475,735.1,01.18,0.508
2014-08-14 00:45:00,1791E-3,5C000000,-0724,0828,12223,029.4,045.5,0.475,735.0,01.18,0.508
2014-08-14 00:46:00,1757E-3,5C000000,-0724,0828,12288,029.5,045.5,0.476,735.0,01.18,0.508
2014-08-14 00:47:00,1783E-3,5C000000,-0724,0829,12278,029.5,045.5,0.475,735.0,01.18,0.508
2014-08-14 00:48:00,1919E-3,5C000000,-0724,0828,12221,029.5,045.6,0.475,735.1,01.18,0.508
2014-08-14 00:49:00,1725E-3,5C000000,-0724,0829,11950,029.5,045.5,0.475,735.1,01.18,0.508
2014-08-14 00:50:00,1979E-3,5C000000,-0724,0829,12316,029.6,045.5,0.475,735.0,01.18,0.508
2014-08-14 00:51:00,1738E-3,5C000000,-0724,0829,12199,029.6,045.5,0.475,735.0,01.18,0.508
2014-08-14 00:52:00,1755E-3,5C000000,-0724,0830,12317,029.6,045.5,0.475,735.0,01.18,0.508
2014-08-14 00:53:00,1968E-3,5C000000,-0724,0828,12050,029.6,045.5,0.475,735.0,01.18,0.508
2014-08-14 00:54:00,1843E-3,5C000000,-0724,0829,12338,029.6,045.5,0.475,735.0,01.18,0.508
2014-08-14 00:55:00,1891E-3,5C000000,-0724,0829,12233,029.6,045.5,0.475,734.9,01.18,0.508
2014-08-14 00:56:00,1928E-3,5C000000,-0724,0828,12172,029.7,045.5,0.475,734.9,01.18,0.508
2014-08-14 00:57:00,2003E-3,5C000000,-0724,0829,12077,029.7,045.6,0.475,735.0,01.18,0.508
2014-08-14 00:58:00,1760E-3,5C000000,-0724,0828,12030,029.7,045.5,0.475,734.9,01.18,0.508
2014-08-14 00:59:00,1943E-3,5C000000,-0724,0828,12160,029.7,045.5,0.475,734.9,01.18,0.508
2014-08-14 01:00:00,1920E-3,5C000000,-0724,0828,12280,029.7,045.5,0.474,735.0,01.18,0.508
2014-08-14 01:01:00,1913E-3,5C000000,-0724,0829,12259,029.8,045.5,0.475,735.0,01.18,0.508
2014-08-14 01:02:00,1911E-3,5C000000,-0724,0830,12211,029.8,045.5,0.475,734.9,01.18,0.508
2014-08-14 01:03:00,1961E-3,5C000000,-0724,0829,12065,029.8,045.5,0.475,734.9,01.18,0.508
2014-08-14 01:04:00,1819E-3,5C000000,-0724,0829,12118,029.8,045.5,0.475,734.9,01.18,0.508
2014-08-14 01:05:00,1808E-3,5C000000,-0724,0829,12239,029.8,045.5,0.475,734.9,01.18,0.508
2014-08-14 01:06:00,1902E-3,5C000000,-0724,0830,12315,029.8,045.5,0.475,735.0,01.18,0.508
2014-08-14 01:07:00,2020E-3,5C000000,-0724,0830,12378,029.8,045.5,0.474,734.9,01.18,0.508
2014-08-14 01:08:00,1856E-3,5C000000,-0724,0829,12363,029.9,045.5,0.475,734.9,01.18,0.508
2014-08-14 01:09:00,1798E-3,5C000000,-0724,0829,12193,029.9,045.5,0.474,734.9,01.18,0.508
2014-08-14 01:10:00,1944E-3,5C000000,-0724,0829,12062,029.9,045.5,0.475,734.9,01.18,0.508
2014-08-14 01:11:00,1939E-3,5C000000,-0724,0830,12165,029.9,045.5,0.474,734.9,01.18,0.508
2014-08-14 01:12:00,2003E-3,5C000000,-0724,0829,12331,029.9,045.5,0.475,734.8,01.18,0.508
2014-08-14 01:13:00,1837E-3,5C000000,-0724,0830,12058,029.9,045.5,0.474,734.8,01.18,0.508
2014-08-14 01:14:00,2023E-3,5C000000,-0724,0829,12156,029.9,045.5,0.475,734.8,01.18,0.508
2014-08-14 01:15:00,1800E-3,5C000000,-0724,0830,12338,029.9,045.5,0.474,734.8,01.18,0.508
2014-08-14 01:16:00,1849E-3,5C000000,-0724,0829,12063,029.9,045.5,0.475,734.8,01.18,0.508
2014-08-14 01:17:00,1863E-3,5C000000,-0724,0829,12203,029.9,045.6,0.474,734.9,01.18,0.508
2014-08-14 01:18:00,1845E-3,5C000000,-0724,0829,12167,029.9,045.5,0.475,734.9,01.18,0.508
2014-08-14 01:19:00,1926E-3,5C000000,-0724,0830,12313,029.9,045.5,0.474,734.9,01.18,0.508
2014-08-14 01:20:00,1722E-3,5C000000,-0724,0829,12294,029.8,045.6,0.475,734.8,01.18,0.508
2014-08-14 01:21:00,1876E-3,5C000000,-0724,0829,12319,029.8,045.6,0.474,734.8,01.18,0.508
2014-08-14 01:22:00,1856E-3,5C000000,-0724,0830,12284,029.8,045.5,0.475,734.8,01.18,0.508
2014-08-14 01:23:00,1970E-3,5C000000,-0724,0829,12256,029.8,045.5,0.475,734.8,01.18,0.508
2014-08-14 01:24:00,1845E-3,5C000000,-0724,0829,12089,029.8,045.5,0.475,734.8,01.18,0.508
2014-08-14 01:25:00,1854E-3,5C000000,-0724,0829,12092,029.7,045.5,0.475,734.8,01.18,0.508
2014-08-14 01:26:00,1936E-3,5C000000,-0724,0829,12057,029.7,045.5,0.475,734.8,01.18,0.508
2014-08-14 01:27:00,1931E-3,5C000000,-0724,0829,11933,029.7,045.5,0.475,734.8,01.18,0.508
2014-08-14 01:28:00,1867E-3,5C000000,-0724,0830,12359,029.7,045.5,0.475,734.8,01.18,0.508
2014-08-14 01:29:00,1814E-3,5C000000,-0724,0829,12289,029.6,045.5,0.475,734.8,01.18,0.508
2014-08-14 01:30:00,1834E-3,5C000000,-0724,0829,12245,029.6,045.5,0.475,734.8,01.18,0.508
2014-08-14 01:31:00,1839E-3,5C000000,-0724,0829,12097,029.6,045.5,0.475,734.8,01.18,0.508
2014-08-14 01:32:00,1820E-3,5C000000,-0724,0828,12248,029.6,045.5,0.475,734.8,01.18,0.508
2014-08-14 01:33:00,1847E-3,5C000000,-0724,0830,12084,029.5,045.5,0.475,734.7,01.18,0.508
2014-08-14 01:34:00,2009E-3,5C000000,-0724,0829,12038,029.5,045.5,0.475,734.7,01.18,0.508
2014-08-14 01:35:00,1881E-3,5C000000,-0724,0829,12280,029.5,045.5,0.475,734.8,01.18,0.508
2014-08-14 01:36:00,1843E-3,5C000000,-0724,0828,12258,029.5,045.5,0.475,734.7,01.18,0.508
2014-08-14 01:37:00,1820E-3,5C000000,-0724,0829,12417,029.5,045.5,0.475,734.7,01.18,0.508
2014-08-14 01:38:00,1886E-3,5C000000,-0724,0829,11759,029.5,045.5,0.475,734.7,01.18,0.508
2014-08-14 01:39:00,1909E-3,5C000000,-0724,0829,12072,029.4,045.6,0.475,734.7,01.18,0.508
2014-08-14 01:40:00,1940E-3,5C000000,-0724,0829,12357,029.4,045.6,0.475,734.7,01.18,0.508
2014-08-14 01:41:00,1957E-3,5C000000,-0724,0830,12298,029.4,045.5,0.475,734.7,01.18,0.508
2014-08-14 01:42:00,1691E-3,5C000000,-0724,0828,12175,029.4,045.5,0.476,734.7,01.18,0.508
2014-08-14 01:43:00,1845E-3,5C000000,-0724,0828,12182,029.4,045.5,0.475,734.7,01.18,0.508
2014-08-14 01:44:00,1969E-3,5C000000,-0724,0829,12206,029.3,045.6,0.475,734.7,01.18,0.508
2014-08-14 01:45:00,1983E-3,5C000000,-0724,0829,12091,029.3,045.5,0.476,734.7,01.18,0.508
2014-08-14 01:46:00,1806E-3,5C000000,-0724,0829,12333,029.3,045.6,0.475,734.6,01.18,0.508
2014-08-14 01:47:00,1882E-3,5C000000,-0724,0830,12343,029.3,045.6,0.475,734.6,01.18,0.508
2014-08-14 01:48:00,1869E-3,5C000000,-0724,0828,12199,029.3,045.5,0.476,734.6,01.18,0.508
2014-08-14 01:49:00,1881E-3,5C000000,-0724,0830,12057,029.3,045.5,0.475,734.7,01.18,0.508
2014-08-14 01:50:00,1865E-3,5C000000,-0724,0830,12077,029.2,045.5,0.475,734.6,01.18,0.508
2014-08-14 01:51:00,1850E-3,5C000000,-0724,0829,12275,029.3,045.5,0.476,734.7,01.18,0.508
2014-08-14 01:52:00,1852E-3,5C000000,-0724,0829,12248,029.2,045.5,0.475,734.6,01.18,0.508
2014-08-14 01:53:00,1898E-3,5C000000,-0724,0829,12292,029.2,045.5,0.475,734.6,01.18,0.508
2014-08-14 01:54:00,1831E-3,5C000000,-0724,0828,12221,029.2,045.5,0.476,734.6,01.18,0.508
2014-08-14 01:55:00,2056E-3,5C000000,-0724,0828,12166,029.2,045.5,0.476,734.6,01.18,0.508
2014-08-14 01:56:00,1755E-3,5C000000,-0724,0829,12121,029.2,045.5,0.475,734.6,01.18,0.508
2014-08-14 01:57:00,1766E-3,5C000000,-0724,0830,12285,029.2,045.5,0.476,734.5,01.18,0.508
2014-08-14 01:58:00,1832E-3,5C000000,-0724,0829,12293,029.1,045.5,0.476,734.5,01.18,0.508
2014-08-14 01:59:00,2009E-3,5C000000,-0724,0828,12111,029.1,045.5,0.475,734.5,01.18,0.508
2014-08-14 02:00:00,1885E-3,5C000000,-0724,0830,12343,029.1,045.5,0.475,734.5,01.18,0.508
2014-08-14 02:01:00,2008E-3,5C000000,-0724,0830,12422,029.1,045.5,0.476,734.5,01.18,0.508
2014-08-14 02:02:00,1885E-3,5C000000,-0724,0828,12051,029.1,045.5,0.476,734.5,01.18,0.508
2014-08-14 02:03:00,1798E-3,5C000000,-0724,0829,12306,029.1,045.5,0.475,734.5,01.18,0.508
2014-08-14 02:04:00,1923E-3,5C000000,-0724,0828,12137,029.1,045.5,0.476,734.5,01.18,0.508
2014-08-14 02:05:00,1942E-3,5C000000,-0724,0828,12324,029.1,045.5,0.476,734.3,01.18,0.508
2014-08-14 02:06:00,1960E-3,5C000000,-0724,0829,12095,029.1,045.5,0.476,734.5,01.18,0.508
2014-08-14 02:07:00,1879E-3,5C000000,-0724,0828,12283,029.0,045.5,0.475,734.4,01.18,0.508
2014-08-14 02:08:00,1952E-3,5C000000,-0724,0828,12208,029.0,045.5,0.476,734.4,01.18,0.508
2014-08-14 02:09:00,1900E-3,5C000000,-0724,0828,12167,029.0,045.5,0.476,734.4,01.18,0.508
2014-08-14 02:10:00,2004E-3,5C000000,-0724,0829,12088,029.0,045.5,0.476,734.4,01.18,0.508
2014-08-14 02:11:00,2047E-3,5C000000,-0724,0829,12084,029.0,045.5,0.475,734.3,01.18,0.508
2014-08-14 02:12:00,2012E-3,5C000000,-0724,0828,12134,029.0,045.5,0.476,734.3,01.18,0.508
2014-08-14 02:13:00,1921E-3,5C000000,-0724,0829,12381,029.0,045.5,0.476,734.4,01.18,0.508
2014-08-14 02:14:00,1877E-3,5C000000,-0724,0829,12140,029.0,045.5,0.476,734.3,01.18,0.508
2014-08-14 02:15:00,1919E-3,5C000000,-0724,0828,12317,028.9,045.5,0.476,734.3,01.18,0.508
2014-08-14 02:16:00,1919E-3,5C000000,-0724,0827,12063,028.9,045.5,0.476,734.2,01.18,0.508
2014-08-14 02:17:00,1965E-3,5C000000,-0724,0828,12194,028.9,045.5,0.476,734.3,01.18,0.508
2014-08-14 02:18:00,1864E-3,5C000000,-0724,0828,12157,028.9,045.5,0.476,734.3,01.18,0.508
2014-08-14 02:19:00,1994E-3,5C000000,-0724,0829,12233,028.9,045.5,0.476,734.4,01.18,0.508
2014-08-14 02:20:00,1854E-3,5C000000,-0724,0829,12120,028.9,045.5,0.476,734.3,01.18,0.508
2014-08-14 02:21:00,1967E-3,5C000000,-0724,0828,12329,028.9,045.5,0.476,734.3,01.18,0.508
2014-08-14 02:22:00,1812E-3,5C000000,-0724,0828,12164,028.9,045.5,0.476,734.3,01.18,0.508
2014-08-14 02:23:00,1923E-3,5C000000,-0724,0829,12163,028.9,045.5,0.476,734.3,01.18,0.508
2014-08-14 02:24:00,1868E-3,5C000000,-0724,0828,12056,028.9,045.5,0.476,734.2,01.18,0.508
2014-08-14 02:25:00,1986E-3,5C000000,-0724,0829,12255,028.8,045.5,0.476,734.3,01.18,0.508
2014-08-14 02:26:00,1961E-3,5C000000,-0724,0829,12331,028.8,045.5,0.476,734.3,01.18,0.508
2014-08-14 02:27:00,1848E-3,5C000000,-0724,0828,12226,028.8,045.5,0.476,734.3,01.18,0.508
2014-08-14 02:28:00,1814E-3,5C000000,-0724,0828,12065,028.8,045.5,0.476,734.3,01.18,0.508
2014-08-14 02:29:00,1859E-3,5C000000,-0724,0828,12137,028.8,045.5,0.476,734.3,01.18,0.508
2014-08-14 02:30:00,1907E-3,5C000000,-0724,0827,12208,028.8,045.5,0.476,734.3,01.18,0.508
2014-08-14 02:31:00,2045E-3,5C000000,-0724,0828,11893,028.8,045.5,0.476,734.3,01.18,0.508
2014-08-14 02:32:00,1824E-3,5C000000,-0724,0828,12295,028.8,045.5,0.476,734.3,01.18,0.508
2014-08-14 02:33:00,1978E-3,5C000000,-0724,0828,12131,028.8,045.5,0.476,734.3,01.18,0.508
2014-08-14 02:34:00,1990E-3,5C000000,-0724,0828,12285,028.8,045.5,0.476,734.3,01.18,0.508
2014-08-14 02:35:00,1877E-3,5C000000,-0724,0829,12188,028.8,045.5,0.476,734.2,01.18,0.508
2014-08-14 02:36:00,2000E-3,5C000000,-0724,0829,12272,028.8,045.5,0.476,734.2,01.18,0.508
2014-08-14 02:37:00,1931E-3,5C000000,-0724,0828,12062,028.7,045.5,0.476,734.2,01.18,0.508
2014-08-14 02:38:00,1906E-3,5C000000,-0724,0829,12103,028.8,045.5,0.476,734.2,01.18,0.508
2014-08-14 02:39:00,1863E-3,5C000000,-0724,0829,12293,028.7,045.5,0.476,734.3,01.18,0.508
2014-08-14 02:40:00,1815E-3,5C000000,-0724,0829,12078,028.7,045.5,0.477,734.3,01.18,0.508
2014-08-14 02:41:00,1984E-3,5C000000,-0724,0829,12153,028.7,045.5,0.476,734.3,01.18,0.508
2014-08-14 02:42:00,2039E-3,5C000000,-0724,0829,12229,028.7,045.5,0.476,734.3,01.18,0.508
2014-08-14 02:43:00,2032E-3,5C000000,-0724,0828,12219,028.7,045.5,0.476,734.2,01.18,0.508
2014-08-14 02:44:00,1962E-3,5C000000,-0724,0828,12172,028.7,045.5,0.476,734.3,01.18,0.508
2014-08-14 02:45:00,1906E-3,5C000000,-0724,0828,12280,028.7,045.5,0.476,734.2,01.18,0.508
2014-08-14 02:46:00,1935E-3,5C000000,-0724,0829,12124,028.7,045.5,0.477,734.2,01.18,0.508
2014-08-14 02:47:00,2053E-3,5C000000,-0724,0830,12346,028.7,045.5,0.476,734.2,01.18,0.508
2014-08-14 02:48:00,1964E-3,5C000000,-0724,0828,12216,028.7,045.5,0.476,734.2,01.18,0.508
2014-08-14 02:49:00,1993E-3,5C000000,-0724,0829,12404,028.7,045.5,0.476,734.2,01.18,0.508
2014-08-14 02:50:00,1887E-3,5C000000,-0724,0828,12081,028.7,045.5,0.476,734.2,01.18,0.508
2014-08-14 02:51:00,1955E-3,5C000000,-0724,0828,12241,028.7,045.5,0.476,734.3,01.18,0.508
2014-08-14 02:52:00,1888E-3,5C000000,-0724,0828,12201,028.7,045.5,0.476,734.2,01.18,0.508
2014-08-14 02:53:00,1941E-3,5C000000,-0724,0829,12247,028.7,045.5,0.477,734.2,01.18,0.508
2014-08-14 02:54:00,2068E-3,5C000000,-0724,0828,12294,028.7,045.5,0.476,734.2,01.18,0.508
2014-08-14 02:55:00,1896E-3,5C000000,-0724,0829,12306,028.7,045.5,0.476,734.1,01.19,0.508
2014-08-14 02:56:00,1869E-3,5C000000,-0724,0828,12145,028.7,045.5,0.476,734.2,01.18,0.508
2014-08-14 02:57:00,1957E-3,5C000000,-0724,0828,12243,028.7,045.5,0.476,734.2,01.18,0.508
2014-08-14 02:58:00,1970E-3,5C000000,-0724,0830,12137,028.7,045.5,0.476,734.2,01.18,0.508
2014-08-14 02:59:00,1809E-3,5C000000,-0724,0829,12176,028.7,045.5,0.476,734.1,01.19,0.508
2014-08-14 03:00:00,2005E-3,5C000000,-0724,0828,12087,028.7,045.5,0.477,734.1,01.19,0.508
2014-08-14 03:01:00,2003E-3,5C000000,-0724,0829,12287,028.7,045.5,0.477,734.2,01.18,0.508
2014-08-14 03:02:00,2013E-3,5C000000,-0724,0829,12310,028.7,045.5,0.476,734.1,01.19,0.508
2014-08-14 03:03:00,1943E-3,5C000000,-0724,0828,12099,028.7,045.5,0.476,734.1,01.19,0.508
2014-08-14 03:04:00,1945E-3,5C000000,-0724,0828,12228,028.7,045.5,0.476,734.1,01.19,0.508
2014-08-14 03:05:00,1836E-3,5C000000,-0724,0829,12391,028.7,045.5,0.476,734.2,01.18,0.508
2014-08-14 03:06:00,2002E-3,5C000000,-0724,0828,12297,028.8,045.5,0.476,734.2,01.18,0.508
2014-08-14 03:07:00,2074E-3,5C000000,-0724,0829,12222,028.8,045.5,0.476,734.2,01.18,0.508
2014-08-14 03:08:00,2048E-3,5C000000,-0724,0828,12113,028.8,045.5,0.476,734.2,01.18,0.508
2014-08-14 03:09:00,1921E-3,5C000000,-0724,0828,12129,028.8,045.5,0.476,734.2,01.18,0.508
2014-08-14 03:10:00,1888E-3,5C000000,-0724,0829,12390,028.8,045.5,0.476,734.1,01.19,0.508
2014-08-14 03:11:00,2021E-3,5C000000,-0724,0829,12086,028.9,045.5,0.476,734.1,01.19,0.508
2014-08-14 03:12:00,1876E-3,5C000000,-0724,0828,12083,028.9,045.5,0.476,734.2,01.18,0.508
2014-08-14 03:13:00,1989E-3,5C000000,-0724,0829,12273,028.9,045.5,0.476,734.2,01.18,0.508
2014-08-14 03:14:00,1915E-3,5C000000,-0724,0829,12306,028.9,045.5,0.476,734.1,01.19,0.508
2014-08-14 03:15:00,1823E-3,5C000000,-0724,0829,12127,029.0,045.5,0.476,734.1,01.19,0.508
2014-08-14 03:16:00,1974E-3,5C000000,-0724,0830,12189,029.0,045.5,0.476,734.1,01.18,0.508
2014-08-14 03:17:00,1968E-3,5C000000,-0724,0829,12294,029.0,045.5,0.476,734.2,01.18,0.508
2014-08-14 03:18:00,2035E-3,5C000000,-0724,0829,12270,029.0,045.5,0.476,734.2,01.18,0.508
2014-08-14 03:19:00,1815E-3,5C000000,-0724,0829,12251,029.1,045.5,0.475,734.1,01.19,0.508
2014-08-14 03:20:00,1731E-3,5C000000,-0724,0828,12232,029.1,045.5,0.475,734.2,01.19,0.508
2014-08-14 03:21:00,1979E-3,5C000000,-0724,0828,12196,029.1,045.5,0.476,734.1,01.19,0.508
2014-08-14 03:22:00,1951E-3,5C000000,-0724,0828,12264,029.1,045.5,0.476,734.1,01.19,0.508
2014-08-14 03:23:00,1929E-3,5C000000,-0724,0830,12365,029.2,045.5,0.476,734.1,01.19,0.508
2014-08-14 03:24:00,2020E-3,5C000000,-0724,0829,12132,029.2,045.5,0.475,734.0,01.19,0.508
2014-08-14 03:25:00,2002E-3,5C000000,-0724,0829,12298,029.2,045.5,0.475,734.1,01.19,0.508
2014-08-14 03:26:00,1897E-3,5C000000,-0724,0829,12175,029.2,045.5,0.476,734.1,01.19,0.508
2014-08-14 03:27:00,1910E-3,5C000000,-0724,0827,12258,029.3,045.5,0.476,734.1,01.19,0.508
2014-08-14 03:28:00,1993E-3,5C000000,-0724,0829,12378,029.3,045.5,0.475,734.1,01.19,0.508
2014-08-14 03:29:00,1735E-3,5C000000,-0724,0829,12258,029.3,045.5,0.475,734.1,01.19,0.508
2014-08-14 03:30:00,1926E-3,5C000000,-0724,0829,12256,029.3,045.5,0.475,734.1,01.19,0.508
2014-08-14 03:31:00,2031E-3,5C000000,-0724,0829,12199,029.3,045.5,0.475,734.0,01.19,0.508
2014-08-14 03:32:00,1808E-3,5C000000,-0724,0829,12238,029.4,045.5,0.475,734.1,01.19,0.508
2014-08-14 03:33:00,2058E-3,5C000000,-0724,0830,12140,029.4,045.5,0.475,734.1,01.19,0.508
2014-08-14 03:34:00,2061E-3,5C000000,-0724,0828,12276,029.4,045.5,0.475,734.1,01.19,0.508
2014-08-14 03:35:00,1897E-3,5C000000,-0724,0829,12313,029.4,045.5,0.475,734.0,01.19,0.508
2014-08-14 03:36:00,2058E-3,5C000000,-0724,0829,12310,029.5,045.5,0.475,734.1,01.19,0.508
2014-08-14 03:37:00,1987E-3,5C000000,-0724,0829,12173,029.5,045.5,0.475,734.0,01.19,0.508
2014-08-14 03:38:00,2029E-3,5C000000,-0724,0829,12337,029.5,045.5,0.475,734.1,01.19,0.508
2014-08-14 03:39:00,1836E-3,5C000000,-0724,0829,12197,029.5,045.5,0.475,734.0,01.19,0.508
2014-08-14 03:40:00,1982E-3,5C000000,-0724,0828,12049,029.6,045.5,0.475,734.0,01.19,0.508
2014-08-14 03:41:00,2042E-3,5C000000,-0724,0829,12168,029.6,045.5,0.475,734.0,01.19,0.508
2014-08-14 03:42:00,1934E-3,5C000000,-0724,0829,12327,029.6,045.5,0.475,733.9,01.19,0.508
2014-08-14 03:43:00,1976E-3,5C000000,-0724,0830,12196,029.6,045.5,0.474,733.9,01.19,0.508
2014-08-14 03:44:00,2204E-3,5C000000,-0724,0829,12140,029.7,045.5,0.475,733.9,01.19,0.508
2014-08-14 03:45:00,1957E-3,5C000000,-0724,0829,12278,029.7,045.6,0.475,733.9,01.19,0.508
2014-08-14 03:46:00,1936E-3,5C000000,-0724,0829,12256,029.7,045.6,0.474,734.0,01.19,0.508
2014-08-14 03:47:00,1906E-3,5C000000,-0724,0829,12263,029.7,045.5,0.475,734.0,01.19,0.508
2014-08-14 03:48:00,2009E-3,5C000000,-0724,0828,12197,029.7,045.5,0.474,734.0,01.19,0.508
2014-08-14 03:49:00,1876E-3,5C000000,-0724,0829,12176,029.8,045.5,0.475,734.0,01.19,0.508
2014-08-14 03:50:00,1999E-3,5C000000,-0724,0830,12271,029.8,045.5,0.475,734.0,01.19,0.508
2014-08-14 03:51:00,1834E-3,5C000000,-0724,0829,12217,029.8,045.5,0.474,733.9,01.19,0.508
2014-08-14 03:52:00,1870E-3,5C000000,-0724,0829,12164,029.8,045.5,0.475,733.9,01.19,0.508
2014-08-14 03:53:00,2006E-3,5C000000,-0724,0830,12204,029.8,045.5,0.474,733.8,01.19,0.508
2014-08-14 03:54:00,1945E-3,5C000000,-0724,0828,12159,029.8,045.6,0.475,733.9,01.19,0.508
2014-08-14 03:55:00,1914E-3,5C000000,-0724,0829,12004,029.8,045.6,0.474,733.9,01.19,0.508
2014-08-14 03:56:00,1871E-3,5C000000,-0724,0828,12163,029.8,045.6,0.474,733.9,01.19,0.508
2014-08-14 03:57:00,1984E-3,5C000000,-0724,0828,12134,029.9,045.6,0.474,733.9,01.19,0.508
2014-08-14 03:58:00,1930E-3,5C000000,-0724,0830,12264,029.9,045.5,0.474,733.9,01.19,0.508
2014-08-14 03:59:00,1904E-3,5C000000,-0724,0829,12226,029.9,045.5,0.475,733.9,01.19,0.508
2014-08-14 04:00:00,1849E-3,5C000000,-0724,0829,12287,029.9,045.6,0.474,733.9,01.19,0.508
2014-08-14 04:01:00,1968E-3,5C000000,-0724,0829,12162,029.9,045.5,0.474,733.8,01.19,0.508
2014-08-14 04:02:00,1991E-3,5C000000,-0724,0829,12320,029.9,045.5,0.474,733.7,01.19,0.508
2014-08-14 04:03:00,1983E-3,5C000000,-0724,0829,12396,029.9,045.5,0.474,733.8,01.19,0.508
2014-08-14 04:04:00,1858E-3,5C000000,-0724,0829,12177,030.0,045.5,0.474,733.8,01.19,0.508
2014-08-14 04:05:00,1944E-3,5C000000,-0724,0829,12187,030.0,045.5,0.474,733.8,01.19,0.508
2014-08-14 04:06:00,1964E-3,5C000000,-0724,0829,12265,030.0,045.5,0.474,733.8,01.19,0.508
2014-08-14 04:07:00,1918E-3,5C000000,-0724,0830,12144,030.0,045.6,0.474,733.8,01.19,0.508
2014-08-14 04:08:00,1847E-3,5C000000,-0724,0829,12031,030.0,045.6,0.474,733.9,01.19,0.508
2014-08-14 04:09:00,1783E-3,5C000000,-0724,0830,12096,030.0,045.5,0.474,733.9,01.19,0.508
2014-08-14 04:10:00,1933E-3,5C000000,-0724,0830,12283,030.0,045.5,0.474,733.8,01.19,0.508
2014-08-14 04:11:00,1935E-3,5C000000,-0724,0829,12225,030.1,045.6,0.474,733.8,01.19,0.508
2014-08-14 04:12:00,1969E-3,5C000000,-0724,0828,12216,030.0,045.5,0.474,733.8,01.19,0.508
2014-08-14 04:13:00,1871E-3,5C000000,-0724,0829,12105,030.1,045.5,0.474,733.8,01.19,0.508
2014-08-14 04:14:00,1861E-3,5C000000,-0724,0830,12019,030.1,045.5,0.474,733.9,01.19,0.508
2014-08-14 04:15:00,1945E-3,5C000000,-0724,0829,12178,030.1,045.5,0.474,733.8,01.19,0.508
2014-08-14 04:16:00,1926E-3,5C000000,-0724,0830,11930,030.1,045.5,0.474,733.8,01.19,0.508
2014-08-14 04:17:00,1867E-3,5C000000,-0724,0829,12267,030.1,045.6,0.474,733.9,01.19,0.508
2014-08-14 04:18:00,1882E-3,5C000000,-0724,0829,12314,030.1,045.5,0.474,733.8,01.19,0.508
2014-08-14 04:19:00,2014E-3,5C000000,-0724,0829,12268,030.1,045.6,0.473,733.9,01.19,0.508
2014-08-14 04:20:00,1902E-3,5C000000,-0724,0829,12126,030.2,045.6,0.474,733.8,01.19,0.508